When you browse on this site, cookies collect data to enhance your experience and personalize the content and advertising you see.
Visit our Privacy Policy to learn more. By continuing to use the site, you agree to this use of cookies and data.

Stündliche Wetter Da Nang

Heute, 15 Juli, Mittwoch

Zeit Temperatur Niederschläge Wind Luftdruck Luftfeuchtigkeit
00:00 +27°C° 0 mm 2 m/S 754 mmHg 92%
01:00 +27°C° 0 mm 2 m/S 754 mmHg 89%
02:00 +27°C° 0 mm 2 m/S 753 mmHg 88%
03:00 +27°C° 0 mm 2 m/S 753 mmHg 87%
04:00 +27°C° 0 mm 2 m/S 753 mmHg 86%
05:00 +28°C° 0 mm 2 m/S 753 mmHg 82%
06:00 +29°C° 0 mm 2 m/S 753 mmHg 78%
07:00 +30°C° 0 mm 1 m/S 754 mmHg 75%
08:00 +32°C° 0 mm 1 m/S 754 mmHg 64%
09:00 +35°C° 0 mm 1 m/S 754 mmHg 54%
10:00 +39°C° 0 mm 1 m/S 754 mmHg 44%
11:00 +39°C° 0 mm 2 m/S 753 mmHg 44%
12:00 +39°C° 0 mm 3 m/S 753 mmHg 44%
13:00 +39°C° 0 mm 3 m/S 752 mmHg 45%
14:00 +38°C° 0.2 mm 3 m/S 752 mmHg 52%
15:00 +37°C° 0.2 mm 3 m/S 752 mmHg 59%
16:00 +35°C° 0.2 mm 3 m/S 751 mmHg 67%
17:00 +33°C° 0.3 mm 3 m/S 752 mmHg 74%
18:00 +31°C° 0.3 mm 3 m/S 752 mmHg 82%
19:00 +29°C° 0.3 mm 2 m/S 752 mmHg 90%
20:00 +28°C° 0.2 mm 2 m/S 752 mmHg 91%
21:00 +28°C° 0.2 mm 2 m/S 753 mmHg 92%
22:00 +28°C° 0.2 mm 2 m/S 753 mmHg 93%
23:00 +27°C° 0.1 mm 2 m/S 753 mmHg 93%

Morgen, 16 Juli, Donnerstag

Zeit Temperatur Niederschläge Wind Luftdruck Luftfeuchtigkeit
00:00 +27°C° 0.1 mm 2 m/S 753 mmHg 92%
01:00 +27°C° 0.1 mm 2 m/S 753 mmHg 91%
02:00 +27°C° 0.2 mm 2 m/S 753 mmHg 92%
03:00 +27°C° 0.2 mm 2 m/S 753 mmHg 92%
04:00 +27°C° 0.2 mm 1 m/S 752 mmHg 93%
05:00 +28°C° 0 mm 1 m/S 753 mmHg 89%
06:00 +29°C° 0 mm 1 m/S 753 mmHg 85%
07:00 +30°C° 0 mm 1 m/S 754 mmHg 81%
08:00 +32°C° 0 mm 1 m/S 754 mmHg 69%
09:00 +35°C° 0 mm 1 m/S 754 mmHg 57%
10:00 +39°C° 0 mm 1 m/S 753 mmHg 45%
11:00 +40°C° 0 mm 2 m/S 753 mmHg 44%
12:00 +40°C° 0 mm 3 m/S 752 mmHg 42%
13:00 +42°C° 0 mm 3 m/S 752 mmHg 40%
14:00 +39°C° 0 mm 3 m/S 751 mmHg 47%
15:00 +38°C° 0 mm 4 m/S 751 mmHg 53%
16:00 +37°C° 0 mm 4 m/S 750 mmHg 59%
17:00 +35°C° 0.6 mm 3 m/S 751 mmHg 69%
18:00 +33°C° 0.6 mm 3 m/S 751 mmHg 78%
19:00 +30°C° 0.6 mm 2 m/S 752 mmHg 87%
20:00 +29°C° 0.4 mm 2 m/S 752 mmHg 89%
21:00 +29°C° 0.4 mm 2 m/S 753 mmHg 91%
22:00 +28°C° 0.4 mm 2 m/S 754 mmHg 93%
23:00 +28°C° 0 mm 2 m/S 753 mmHg 92%

übermorgen, 17 Juli, Freitag

Zeit Temperatur Niederschläge Wind Luftdruck Luftfeuchtigkeit
00:00 +28°C° 0 mm 2 m/S 753 mmHg 91%
01:00 +28°C° 0 mm 2 m/S 753 mmHg 90%
02:00 +28°C° 0 mm 2 m/S 753 mmHg 89%
03:00 +27°C° 0 mm 2 m/S 753 mmHg 88%
04:00 +27°C° 0 mm 2 m/S 753 mmHg 86%
05:00 +28°C° 0 mm 2 m/S 753 mmHg 82%
06:00 +29°C° 0 mm 2 m/S 754 mmHg 78%
07:00 +30°C° 0 mm 2 m/S 754 mmHg 74%
08:00 +34°C° 0 mm 2 m/S 754 mmHg 64%
09:00 +35°C° 0 mm 1 m/S 754 mmHg 54%
10:00 +37°C° 0 mm 1 m/S 754 mmHg 45%
11:00 +39°C° 0 mm 2 m/S 754 mmHg 42%
12:00 +40°C° 0 mm 2 m/S 753 mmHg 40%
13:00 +42°C° 0 mm 3 m/S 753 mmHg 38%
14:00 +39°C° 0 mm 3 m/S 752 mmHg 46%
15:00 +37°C° 0 mm 3 m/S 752 mmHg 54%
16:00 +36°C° 0 mm 3 m/S 751 mmHg 62%
17:00 +34°C° 0.2 mm 2 m/S 752 mmHg 70%
18:00 +31°C° 0.2 mm 2 m/S 752 mmHg 78%
19:00 +29°C° 0.2 mm 2 m/S 753 mmHg 87%
20:00 +29°C° 0.1 mm 2 m/S 753 mmHg 88%
21:00 +28°C° 0.1 mm 2 m/S 754 mmHg 90%
22:00 +28°C° 0.1 mm 3 m/S 754 mmHg 92%
23:00 +28°C° 0 mm 2 m/S 754 mmHg 91%

18 Juli, Samstag

Zeit Temperatur Niederschläge Wind Luftdruck Luftfeuchtigkeit
00:00 +27°C° 0 mm 2 m/S 754 mmHg 91%
01:00 +27°C° 0 mm 2 m/S 754 mmHg 91%
02:00 +27°C° 0 mm 2 m/S 753 mmHg 90%
03:00 +27°C° 0 mm 2 m/S 753 mmHg 89%
04:00 +27°C° 0 mm 2 m/S 753 mmHg 87%
05:00 +28°C° 0 mm 2 m/S 753 mmHg 83%
06:00 +29°C° 0 mm 2 m/S 754 mmHg 79%
07:00 +30°C° 0 mm 2 m/S 754 mmHg 75%
08:00 +34°C° 0 mm 2 m/S 754 mmHg 65%
09:00 +36°C° 0 mm 2 m/S 754 mmHg 54%
10:00 +39°C° 0 mm 1 m/S 754 mmHg 43%
11:00 +40°C° 0 mm 2 m/S 754 mmHg 41%
12:00 +42°C° 0 mm 3 m/S 753 mmHg 39%
13:00 +43°C° 0 mm 4 m/S 752 mmHg 36%
14:00 +40°C° 0.1 mm 3 m/S 752 mmHg 45%
15:00 +38°C° 0.1 mm 3 m/S 752 mmHg 54%
16:00 +36°C° 0.1 mm 3 m/S 751 mmHg 63%
17:00 +34°C° 0.7 mm 3 m/S 752 mmHg 72%
18:00 +31°C° 0.7 mm 3 m/S 752 mmHg 82%
19:00 +29°C° 0.7 mm 2 m/S 753 mmHg 92%
20:00 +28°C° 0 mm 2 m/S 753 mmHg 92%
21:00 +28°C° 0 mm 2 m/S 754 mmHg 93%
22:00 +27°C° 0 mm 2 m/S 754 mmHg 94%
23:00 +27°C° 0 mm 2 m/S 754 mmHg 94%

19 Juli, Sonntag

Zeit Temperatur Niederschläge Wind Luftdruck Luftfeuchtigkeit
00:00 +27°C° 0 mm 2 m/S 753 mmHg 93%
01:00 +27°C° 0 mm 2 m/S 753 mmHg 92%
02:00 +27°C° 0 mm 2 m/S 753 mmHg 92%
03:00 +27°C° 0 mm 2 m/S 753 mmHg 91%
04:00 +27°C° 0 mm 2 m/S 753 mmHg 90%
05:00 +28°C° 0 mm 2 m/S 753 mmHg 87%
06:00 +29°C° 0 mm 2 m/S 753 mmHg 83%
07:00 +30°C° 0 mm 2 m/S 753 mmHg 80%
08:00 +32°C° 0 mm 2 m/S 753 mmHg 69%
09:00 +36°C° 0 mm 2 m/S 753 mmHg 57%
10:00 +38°C° 0 mm 2 m/S 753 mmHg 46%
11:00 +40°C° 0 mm 2 m/S 752 mmHg 42%
12:00 +41°C° 0 mm 2 m/S 751 mmHg 39%
13:00 +42°C° 0 mm 2 m/S 751 mmHg 35%
14:00 +40°C° 0 mm 3 m/S 750 mmHg 42%
15:00 +39°C° 0 mm 3 m/S 750 mmHg 48%
16:00 +37°C° 0 mm 3 m/S 750 mmHg 54%
17:00 +35°C° 0.6 mm 3 m/S 750 mmHg 65%
18:00 +31°C° 0.6 mm 2 m/S 751 mmHg 76%
19:00 +29°C° 0.6 mm 2 m/S 751 mmHg 87%
20:00 +29°C° 0.2 mm 2 m/S 752 mmHg 88%
21:00 +28°C° 0.2 mm 2 m/S 752 mmHg 88%
22:00 +28°C° 0.2 mm 2 m/S 753 mmHg 89%
23:00 +27°C° 0 mm 2 m/S 753 mmHg 89%

20 Juli, Montag

Zeit Temperatur Niederschläge Wind Luftdruck Luftfeuchtigkeit
00:00 +27°C° 0 mm 2 m/S 752 mmHg 89%
01:00 +27°C° 0 mm 2 m/S 752 mmHg 89%
02:00 +27°C° 0 mm 2 m/S 752 mmHg 87%
03:00 +27°C° 0 mm 2 m/S 752 mmHg 86%
04:00 +27°C° 0 mm 2 m/S 752 mmHg 85%
05:00 +28°C° 0 mm 2 m/S 752 mmHg 82%
06:00 +29°C° 0 mm 1 m/S 752 mmHg 79%
07:00 +30°C° 0 mm 1 m/S 753 mmHg 76%
08:00 +32°C° 0 mm 1 m/S 753 mmHg 66%
09:00 +35°C° 0 mm 1 m/S 753 mmHg 56%
10:00 +37°C° 0 mm 1 m/S 753 mmHg 46%
11:00 +39°C° 0 mm 2 m/S 753 mmHg 44%
12:00 +40°C° 0 mm 2 m/S 752 mmHg 42%
13:00 +40°C° 0 mm 3 m/S 752 mmHg 40%
14:00 +39°C° 0.1 mm 3 m/S 752 mmHg 47%
15:00 +37°C° 0.1 mm 3 m/S 751 mmHg 55%
16:00 +36°C° 0.1 mm 3 m/S 751 mmHg 62%
17:00 +34°C° 0.8 mm 2 m/S 752 mmHg 71%
18:00 +31°C° 0.8 mm 2 m/S 752 mmHg 81%
19:00 +29°C° 0.8 mm 1 m/S 752 mmHg 90%
20:00 +28°C° 0.2 mm 1 m/S 753 mmHg 91%
21:00 +28°C° 0.2 mm 2 m/S 754 mmHg 92%
22:00 +28°C° 0.2 mm 2 m/S 754 mmHg 92%
23:00 +27°C° 0.3 mm 1 m/S 754 mmHg 93%
Mehr zeigen